Hourly Data Report for August 17, 2019

TORONTO CITY
ONTARIO
Current Station Operator: ECCC - MSC

43°40'00.000" N
79°24'00.000" W
112.50 m
6158355
71508
XTO

Download Data

Hourly Data (August 2019)
Hourly Data Report for August 17, 2019
TIME
LST
Temp Definition
°C
Dew Point Definition
°C
Rel Hum Definition
%
Precip. Amount Definition
mm

Wind Dir Definition
10's deg

Wind Spd Definition
km/h
Visibility Definition
km
Stn Press Definition
kPa
Hmdx Definition


Wind Chill Definition


Weather Definition


00:00 20.4 17.2 82 0.0       100.07 26   LegendNANA
01:00 19.9 17.3 85 0.0       100.00     LegendNANA
02:00 19.8 17.5 87 0.0       100.03     LegendNANA
03:00 19.5 17.5 89 0.0       99.98     LegendNANA
04:00 19.4 17.6 90 0.0       99.97     LegendNANA
05:00 19.3 17.6 90 0.0       99.95     LegendNANA
06:00 19.8 17.8 89 0.0       99.97     LegendNANA
07:00 19.7 17.9 89 2.8       99.95     LegendNANA
08:00 19.9 18.1 90 3.8       99.99     LegendNANA
09:00 20.0 18.4 90 2.5       99.99 26   LegendNANA
10:00 20.9 18.8 88 1.8       99.95 28   LegendNANA
11:00 22.0 18.5 80 0.0       99.94 28   LegendNANA
12:00 23.4 19.1 77 0.2       99.95 30   LegendNANA
13:00 24.2 19.2 74 0.0       99.92 31   LegendNANA
14:00 23.7 19.1 76 0.2       99.88 31   LegendNANA
15:00 24.7 19.6 73 12.8       99.85 32   LegendNANA
16:00 25.3 18.1 64 0.0       99.79 31   LegendNANA
17:00 25.4 19.2 68 0.0       99.83 32   LegendNANA
18:00 25.4 18.1 64 0.0       99.83 31   LegendNANA
19:00 24.9 15.3 55 0.0       99.84 29   LegendNANA
20:00 22.9 14.8 60 0.0       99.87 27   LegendNANA
21:00 21.8 15.2 66 0.0       99.93 26   LegendNANA
22:00 21.1 15.1 68 0.0       99.98 25   LegendNANA
23:00 20.7 15.7 73 0.0       100.04 25   LegendNANA

Notes on Data Quality.

Legend

  • E = Estimated
  • M = Missing
  • NA = Not Available*
  • [empty] = Indicates an unobserved value
Date modified: